This is the latest recevied weather packets stored in our database for station/object N0MR. If no packets are shown the sender has not sent any weather packets the latest 10 day(s).
| Time | Temp. | Humidity | Pressure | Rain* | Wind** | Luminosity | Snow |
|---|---|---|---|---|---|---|---|
| 1788650965 | 18.33° C | 87% | 1017.3 hPa | 0 mm | - | - | - |
| 1788650364 | 18.89° C | 83% | 1017.7 hPa | 0 mm | - | - | - |
| 1788649764 | 18.89° C | 83% | 1017.7 hPa | 0 mm | - | - | - |
| 1788649164 | 19.44° C | 84% | 1017.5 hPa | 0 mm | - | - | - |
| 1788648568 | 19.44° C | 84% | 1017.5 hPa | 0 mm | - | - | - |
| 1788647965 | 20.56° C | 83% | 1017.5 hPa | 0 mm | - | - | - |
| 1788647364 | 20.56° C | 83% | 1017.5 hPa | 0 mm | - | - | - |
| 1788646765 | 21.11° C | 81% | 1017.7 hPa | 0 mm | - | - | - |
| 1788646167 | 21.11° C | 81% | 1017.7 hPa | 0 mm | - | - | - |
| 1788645568 | 21.67° C | 80% | 1017.9 hPa | 0 mm | - | - | - |
| 1788644965 | 22.22° C | 75% | 1017.9 hPa | 0 mm | - | - | - |
| 1788643764 | 22.22° C | 78% | 1017.8 hPa | 0 mm | - | - | - |
| 1788643165 | 22.22° C | 78% | 1017.8 hPa | 0 mm | - | - | - |
| 1788642565 | 22.22° C | 77% | 1018.1 hPa | 0 mm | - | - | - |
| 1788641968 | 22.22° C | 77% | 1018.1 hPa | 0 mm | - | - | - |
| 1788640165 | 22.22° C | 80% | 1018.1 hPa | 0 mm | - | - | - |
| 1788639566 | 22.22° C | 80% | 1018.1 hPa | 0 mm | - | - | - |
| 1788638975 | 21.67° C | 84% | 1018.2 hPa | 0 mm | - | - | - |
| 1788638366 | 21.67° C | 84% | 1018.2 hPa | 0 mm | - | - | - |
| 1788637768 | 21.11° C | 84% | 1018.5 hPa | 0 mm | - | - | - |
| 1788637166 | 21.11° C | 84% | 1018.5 hPa | 0 mm | - | - | - |
| 1788636565 | 20.56° C | 85% | 1018.6 hPa | 0 mm | - | - | - |
| 1788635976 | 20.56° C | 85% | 1018.6 hPa | 0 mm | - | - | - |
| 1788634175 | 19.44° C | 88% | 1018.9 hPa | 0 mm | - | - | - |
| 1788633567 | 19.44° C | 92% | 1019 hPa | 0 mm | - | - | - |
* Rain latest hour (hover to see other rain measurements)
** Current wind speed in m/s (hover to see current wind gust speed)